Location: Aula-Vintri
(58.3875°N, 22.4322°E)
Time: 19:58:22
(UTC+00:00)

Cosmos 1758 Rocket - Pass Details

Date: 13 October 2019
Orbit: 603 x 635 km, 82.5° (Epoch: 17 November)

Event Time Altitude Azimuth Distance (km) Brightness Sun altitude
Rises 16:33:34 0° 345° (NNW) 2,904 7.2 -8.9°
Reaches altitude 10° 16:35:47 10° 344° (NNW) 1,999 6.4 -9.2°
Maximum altitude 16:40:13 74° 260° (W) 654 3.8 -9.8°
Drops below altitude 10° 16:44:39 10° 176° (S) 2,003 6.1 -10.4°
Sets 16:46:53 0° 174° (S) 2,911 6.9 -10.6°
